Llagostera





Hora UTC 20:25
Temperatura 2.2 ºC
Humitat 94.0 %
Pressió 1001.4 hPa
Pluja 0.6 mm
Velocitat vent 1.6 km/h
Direcció vent

Dades diàries 2021-11-27



Hora UTC (hivern +1h; estiu +2h)
Temperatura (ºC) Humitat (%) Pressió (hPa) Velocitat vent (km/h) Precipitació (mm)
Hora UTC Aire Humitat Pressió Vel. Dir. Vel. Max Dir. Intent. màx 5 min.
00:05 3.4 91.0 1002.5 0.0 0.0 0.0
00:15 3.1 91.0 1002.3 3.2 6.4 0.0
00:25 3.2 93.0 1002.0 4.8 9.7 0.0
00:35 3.7 95.0 1002.0 3.2 9.7 0.0
00:45 3.8 94.0 1002.0 3.2 9.7 0.0
00:55 3.8 94.0 1001.9 1.6 9.7 0.0
01:05 3.9 93.0 1001.8 3.2 9.7 0.0
01:15 3.9 93.0 1001.7 1.6 9.7 0.0
01:25 3.9 93.0 1001.5 3.2 9.7 0.0
01:35 3.9 92.0 1001.3 3.2 9.7 0.0
01:45 3.6 91.0 1001.2 1.6 9.7 0.0
01:55 3.1 91.0 1001.2 0.0 9.7 0.0
02:05 2.9 91.0 1001.2 1.6 9.7 0.0
02:15 2.4 91.0 1001.0 1.6 9.7 0.0
02:25 2.1 91.0 1000.8 1.6 9.7 0.0
02:35 1.7 92.0 1000.5 1.6 9.7 0.0
02:45 1.6 93.0 1000.4 1.6 9.7 0.0
02:55 1.6 94.0 1000.2 1.6 9.7 0.0
03:05 1.4 93.0 1000.1 1.6 9.7 0.0
03:15 1.3 94.0 999.9 0.0 9.7 0.0
03:25 1.1 94.0 999.7 0.0 9.7 0.0
03:35 0.9 94.0 999.5 0.0 9.7 0.0
03:45 0.7 94.0 999.4 0.0 9.7 0.0
03:55 0.6 94.0 999.2 0.0 9.7 0.0
04:05 0.4 94.0 999.2 0.0 9.7 0.0
04:15 0.3 94.0 999.0 0.0 9.7 0.0
04:25 0.1 94.0 999.1 0.0 9.7 0.0
04:35 -0.1 94.0 998.9 0.0 9.7 0.0
04:45 -0.1 95.0 998.9 0.0 9.7 0.0
04:55 -0.1 94.0 998.6 0.0 9.7 0.0
05:05 -0.2 95.0 998.5 3.2 9.7 0.0
05:15 -0.3 95.0 998.2 0.0 9.7 0.0
05:25 -0.3 95.0 998.1 0.0 9.7 0.0
05:35 -0.4 95.0 997.9 0.0 9.7 0.0
05:45 -0.5 95.0 997.9 0.0 9.7 0.0
05:55 -0.7 95.0 997.9 0.0 9.7 0.0
06:05 -0.4 96.0 997.9 3.2 11.3 0.0
06:15 -0.2 95.0 997.9 4.8 12.9 0.0
06:25 -0.4 95.0 997.9 1.6 12.9 0.0
06:35 -0.5 95.0 997.8 0.0 12.9 0.0
06:45 -0.7 95.0 997.7 0.0 12.9 0.0
06:55 -0.8 95.0 997.7 0.0 12.9 0.0
07:05 -0.7 95.0 997.7 0.0 12.9 0.0
07:15 -0.7 95.0 997.7 0.0 12.9 0.0
07:25 -0.5 96.0 997.7 0.0 12.9 0.0
07:35 -0.2 96.0 997.8 0.0 12.9 0.0
07:45 0.6 96.0 998.0 0.0 12.9 0.0
07:55 1.3 96.0 998.3 1.6 12.9 0.2
08:05 2.2 97.0 998.1 3.2 12.9 0.0
08:15 2.9 96.0 998.1 3.2 12.9 0.0
08:25 3.9 96.0 998.1 3.2 12.9 0.0
08:35 4.8 94.0 998.2 1.6 12.9 0.0
08:45 5.3 91.0 998.3 3.2 12.9 0.0
09:05 6.2 89.0 998.1 1.6 12.9 0.0
09:15 6.7 86.0 998.2 3.2 12.9 0.0
09:25 7.3 86.0 998.2 1.6 12.9 0.0
09:35 7.8 83.0 998.3 3.2 12.9 0.0
09:45 8.3 81.0 998.5 0.0 12.9 0.0
09:55 9.2 80.0 998.4 0.0 12.9 0.0
10:05 10.1 78.0 998.3 0.0 12.9 0.0
10:15 10.8 73.0 998.3 1.6 12.9 0.0
10:25 11.2 73.0 998.4 6.4 16.1 0.0
10:35 11.2 72.0 998.4 8.0 16.1 0.0
10:45 11.5 71.0 998.2 4.8 16.1 0.0
10:55 11.6 70.0 998.1 6.4 16.1 0.0
11:05 11.6 69.0 998.0 6.4 16.1 0.0
11:15 11.8 70.0 998.1 8.0 16.1 0.0
11:25 11.9 67.0 998.1 6.4 16.1 0.0
11:35 11.9 63.0 998.0 8.0 16.1 0.0
11:45 12.1 61.0 997.9 4.8 16.1 0.0
11:55 12.1 62.0 998.0 1.6 16.1 0.0
12:05 12.6 61.0 997.9 1.6 16.1 0.0
12:15 13.3 60.0 997.9 3.2 16.1 0.0
12:25 13.4 58.0 997.8 1.6 16.1 0.0
12:35 13.4 58.0 997.7 1.6 16.1 0.0
12:45 13.8 60.0 997.8 6.4 16.1 0.0
12:55 13.9 58.0 997.8 1.6 16.1 0.0
13:05 13.1 61.0 997.8 6.4 16.1 0.0
13:15 12.3 62.0 997.9 4.8 16.1 0.0
13:25 11.7 62.0 997.9 6.4 16.1 0.0
13:35 11.2 63.0 998.0 6.4 16.1 0.0
13:45 10.8 65.0 998.0 6.4 16.1 0.0
13:55 10.7 66.0 997.9 1.6 16.1 0.0
14:05 10.6 69.0 998.1 0.0 16.1 0.0
14:15 10.4 70.0 998.2 3.2 16.1 0.0
14:25 10.2 72.0 998.4 3.2 16.1 0.0
14:35 9.6 74.0 998.6 12.9 29.0 0.0
14:45 8.5 77.0 998.8 16.1 29.0 0.2
14:55 8.0 78.0 999.0 11.3 29.0 0.0
15:05 7.7 78.0 999.1 8.0 29.0 0.0
15:15 7.3 79.0 999.4 9.7 29.0 0.0
15:25 6.8 80.0 999.4 8.0 29.0 0.0
15:35 6.7 81.0 999.5 3.2 29.0 0.2
15:45 6.7 81.0 999.3 4.8 29.0 0.0
15:55 6.7 83.0 999.4 4.8 29.0 0.0
16:05 6.8 83.0 999.3 3.2 29.0 0.0
16:15 6.7 83.0 999.5 3.2 29.0 0.0
16:25 6.4 83.0 999.5 4.8 29.0 0.0
16:35 6.3 83.0 999.7 3.2 29.0 0.0
16:45 6.1 83.0 999.5 4.8 29.0 0.0
16:55 5.8 83.0 999.6 6.4 29.0 0.0
17:05 5.8 83.0 999.7 3.2 29.0 0.0
17:15 5.6 83.0 999.9 0.0 29.0 0.0
17:25 5.3 84.0 1000.0 1.6 29.0 0.0
17:35 5.2 86.0 1000.3 3.2 29.0 0.0
17:45 5.1 87.0 1000.3 4.8 29.0 0.0
17:55 4.9 88.0 1000.4 3.2 29.0 0.0
18:05 4.9 90.0 1000.7 1.6 29.0 0.0
18:15 4.8 90.0 1000.6 1.6 29.0 0.0
18:25 4.7 90.0 1000.6 3.2 29.0 0.0
18:35 4.4 90.0 1000.7 3.2 29.0 0.0
18:45 4.3 90.0 1000.7 1.6 29.0 0.0
18:55 4.1 91.0 1000.9 0.0 29.0 0.0
19:05 3.8 91.0 1001.0 0.0 29.0 0.0
19:15 3.6 91.0 1001.2 0.0 29.0 0.0
19:25 3.0 90.0 1001.1 3.2 29.0 0.0
19:35 2.7 91.0 1001.2 3.2 29.0 0.0
19:45 2.4 91.0 1001.0 1.6 29.0 0.0
19:55 2.6 94.0 1001.3 1.6 29.0 0.0
20:05 2.5 94.0 1001.4 0.0 29.0 0.0
20:15 2.5 94.0 1001.5 0.0 29.0 0.0
20:25 2.2 94.0 1001.4 1.6 29.0 0.0
Màxima 14.1 97.0 1002.5 16.1 29.0 0.2
Mínima -0.8 58.0 997.7
Total 0.6